Погода в Заволжском

Россия / Тверская область     56°53′25″N   35°45′12″E
темп.,
°C
ветер,
м/с
пор.,
м/с
влажн.,
%
обл.,
%
осадки,
мм/ч
давл.,
гПа
погр.,
м
7 августа, вс
вс700:00+18ю34915 1.1 101657
03:00+17ююз359777 4.5 101695
06:00+18зюз3796100 1.4 1016219
09:00+18ссз3595100 2.5 1017443
12:00+17ссз2597100 3.7 1019346
15:00+16с3698100 14.2 1019431
18:00+14с3796100 2.9 1020346
21:00+13ссз2297100 2.9 102156
8 августа, пн
пн800:00+12с23965 0.0 102247
03:00+10с23960 0.0 102254
06:00+10ссв24945 0.0 102382
09:00+16ссв247437 0.0 1023391
12:00+20св234795 0.0 10231297
15:00+22ссв224339 0.0 10221693
18:00+20вюв2365100 0.0 1022312
21:00+17с1175100 0.1 102211
9 августа, вт
вт900:00+16ссв2369100 0.0 102262
03:00+15ссв2471100 0.0 102298
06:00+12с2470100 0.0 102270
09:00+17с3560100 0.0 1022321
12:00+21с354779 0.0 10221495
15:00+23с33397 0.0 10212316
18:00+21с3557100 0.0 1021771
21:00+16ссз2469100 0.0 102294
10 августа, ср
ср1000:00+15ссз2577100 0.0 1022137
03:00+13ссз269378 0.5 1022190
06:00+12ссз389896 0.8 1022322
09:00+14с479292 1.4 1022601
12:00+16ссз458358 1.5 1023718
15:00+17ссз56661 2.8 1022867
18:00+18ссз36615 0.0 10221062
21:00+13сз348317 0.0 102368
11 августа, чт
чт1100:00+12сз23865 0.0 102451
03:00+11сз22825 0.0 102428
06:00+11сз24807 0.0 102587
09:00+18ссз24571 0.0 1025433
12:00+22сз34445 0.0 10251701
15:00+23зсз34395 0.0 10242095
18:00+22з24495 0.0 1023272
21:00+16з2267100 0.0 102312